This is the latest recevied weather packets stored in our database for station/object KF0TNT. If no packets are shown the sender has not sent any weather packets the latest 10 day(s).
| Time | Temp. | Humidity | Pressure | Rain* | Wind** | Luminosity | Snow |
|---|---|---|---|---|---|---|---|
| 1777935994 | 15° C | 34% | 1011.9 hPa | 0 mm | - | 179 W/m² | - |
| 1777935693 | 15° C | 33% | 1011.7 hPa | 0 mm | - | 181 W/m² | - |
| 1777935391 | 15.56° C | 32% | 1011.7 hPa | 0 mm | - | 161 W/m² | - |
| 1777935087 | 15° C | 31% | 1011.7 hPa | 0 mm | - | 170 W/m² | - |
| 1777934784 | 15° C | 32% | 1011.7 hPa | 0 mm | - | 148 W/m² | - |
| 1777934480 | 15.56° C | 32% | 1011.4 hPa | 0 mm | - | 149 W/m² | - |
| 1777934178 | 15.56° C | 31% | 1011.2 hPa | 0 mm | - | 138 W/m² | - |
| 1777933874 | 15.56° C | 31% | 1010.9 hPa | 0 mm | - | 164 W/m² | - |
| 1777933571 | 15.56° C | 31% | 1011 hPa | 0 mm | - | 157 W/m² | - |
| 1777933268 | 16.11° C | 30% | 1011.2 hPa | 0 mm | - | 183 W/m² | - |
| 1777932965 | 16.11° C | 30% | 1011.3 hPa | 0 mm | - | 162 W/m² | - |
| 1777932662 | 16.67° C | 29% | 1011 hPa | 0 mm | - | 144 W/m² | - |
| 1777932358 | 16.67° C | 25% | 1011.2 hPa | 0 mm | - | 120 W/m² | - |
| 1777932056 | 16.67° C | 26% | 1011 hPa | 0 mm | - | 105 W/m² | - |
| 1777931752 | 16.67° C | 26% | 1011 hPa | 0 mm | - | 116 W/m² | - |
| 1777931449 | 16.67° C | 26% | 1011.2 hPa | 0 mm | - | 113 W/m² | - |
| 1777931145 | 16.67° C | 26% | 1011 hPa | 0 mm | - | 112 W/m² | - |
| 1777930842 | 16.67° C | 25% | 1011.3 hPa | 0 mm | - | 152 W/m² | - |
| 1777930538 | 17.22° C | 25% | 1011.2 hPa | 0 mm | - | 215 W/m² | - |
| 1777930235 | 17.22° C | 25% | 1011.3 hPa | 0 mm | - | 262 W/m² | - |
| 1777929931 | 17.22° C | 25% | 1011 hPa | 0 mm | - | 302 W/m² | - |
| 1777929629 | 17.22° C | 24% | 1011.4 hPa | 0 mm | - | 373 W/m² | - |
| 1777929325 | 17.22° C | 25% | 1011.2 hPa | 0 mm | - | 259 W/m² | - |
| 1777929023 | 17.22° C | 24% | 1011.3 hPa | 0 mm | - | 242 W/m² | - |
| 1777928719 | 17.22° C | 25% | 1011.2 hPa | 0 mm | - | 264 W/m² | - |
* Rain latest hour (hover to see other rain measurements)
** Current wind speed in m/s (hover to see current wind gust speed)